GW4118 Weather Reports


time (UTC)temp
F
wind
direction
speed
knots
gust
knots
rain 1hr
in
rain 24hr
in
rain mn
in
humidity
%
barometer
mb
20260507081600 45 238 0.0 1.7 0.00 0.53 0.05 93 1006.6
20260507081059 45 241 0.0 1.7 0.00 0.53 0.05 93 1006.3
20260507080601 45 253 0.0 5.2 0.00 0.53 0.05 93 1006.2
20260507080114 46 49 0.0 5.2 0.00 0.53 0.05 93 1006.3
20260507075557 46 270 0.0 0.0 0.00 0.53 0.05 93 1006.4
20260507075056 46 296 0.0 3.5 0.00 0.53 0.05 93 1006.4
20260507074556 46 300 0.0 3.5 0.00 0.53 0.05 93 1006.3
20260507074055 46 335 0.0 3.5 0.00 0.53 0.05 93 1006.4
20260507073554 46 239 0.0 0.0 0.00 0.53 0.05 93 1006.4
20260507073053 46 301 0.0 0.0 0.00 0.53 0.05 93 1006.5
20260507072553 46 290 0.0 1.7 0.00 0.53 0.05 93 1006.5
20260507072052 47 253 0.0 3.5 0.00 0.53 0.05 93 1006.4
20260507071608 47 284 0.0 3.5 0.00 0.53 0.05 93 1006.6
20260507071049 47 291 0.0 1.7 0.00 0.53 0.05 94 1006.4
20260507070549 47 298 0.0 6.1 0.00 0.53 0.05 94 1006.3
20260507070049 47 277 0.9 6.1 0.00 0.53 0.05 94 1006.4
20260507065548 47 302 0.0 1.7 0.00 0.53 0.05 94 1005.9
20260507065048 47 320 0.0 5.2 0.00 0.53 0.05 93 1005.9
20260507064545 48 296 1.7 4.3 0.00 0.53 0.05 94 1005.9
20260507064044 48 256 0.9 1.7 0.00 0.53 0.05 94 1006.0
20260507063543 48 336 0.0 1.7 0.00 0.53 0.05 94 1005.9
20260507063045 48 336 0.0 1.7 0.00 0.53 0.05 94 1005.8
20260507062542 48 105 0.0 1.7 0.00 0.53 0.05 94 1005.7
20260507062041 48 321 0.0 1.7 0.00 0.53 0.05 94 1005.6
20260507061541 49 290 0.0 0.9 0.00 0.53 0.05 94 1005.7
20260507061040 49 280 0.0 1.7 0.00 0.53 0.05 94 1005.4
20260507060542 49 284 0.0 1.7 0.00 0.53 0.05 94 1005.5
20260507060044 49 305 0.0 1.7 0.00 0.53 0.05 94 1005.5
20260507055542 49 340 0.0 0.9 0.01 0.53 0.05 94 1005.2
20260507055038 49 340 0.0 1.7 0.01 0.53 0.05 94 1005.2
20260507054538 49 340 0.0 1.7 0.01 0.53 0.05 93 1005.4
20260507054037 49 340 0.0 1.7 0.01 0.53 0.05 93 1005.4
20260507053538 49 313 0.0 1.7 0.02 0.53 0.05 93 1005.3
20260507053105 49 262 0.0 1.7 0.02 0.53 0.05 93 1005.3
20260507052537 49 126 0.0 1.7 0.02 0.53 0.05 93 1004.9
20260507052035 49 43 0.0 1.7 0.02 0.53 0.05 93 1005.0
20260507051542 49 284 0.0 1.7 0.02 0.53 0.05 94 1005.1
20260507051033 50 350 0.0 1.7 0.02 0.53 0.05 94 1005.1
20260507050533 50 329 0.0 3.5 0.03 0.53 0.05 93 1005.1
20260507050036 50 305 0.9 3.5 0.05 0.53 0.05 94 1005.2
20260507045532 50 323 0.9 1.7 0.05 0.52 0.04 94 1005.4
20260507045032 50 292 0.0 1.7 0.05 0.52 0.04 93 1005.4
20260507044532 50 292 0.0 4.3 0.05 0.52 0.04 94 1005.4
20260507044029 51 293 0.9 4.3 0.05 0.52 0.04 94 1005.2
20260507043528 51 322 0.0 6.1 0.04 0.51 0.03 94 1005.2
20260507043028 51 324 0.9 6.1 0.04 0.51 0.03 93 1005.4
20260507042530 51 328 0.9 3.5 0.04 0.51 0.03 94 1005.4
20260507042026 51 281 0.9 6.1 0.04 0.51 0.03 94 1005.4
20260507041525 52 325 1.7 6.1 0.05 0.51 0.03 94 1005.4
20260507041024 52 340 0.9 5.2 0.06 0.51 0.03 94 1005.3
20260507040523 52 307 1.7 5.2 0.07 0.50 0.02 94 1005.2
20260507040027 52 241 1.7 4.3 0.07 0.48 0.00 94 1005.4
20260507035522 53 306 1.7 4.3 0.06 0.47 0.47 94 1005.4
20260507035022 53 326 0.9 3.5 0.07 0.47 0.47 94 1004.9
20260507034532 53 304 0.9 3.5 0.07 0.47 0.47 94 1004.9
20260507034021 53 307 0.0 3.5 0.08 0.47 0.47 94 1004.9
20260507033521 53 229 0.9 5.2 0.10 0.47 0.47 94 1004.9
20260507033034 53 331 0.9 6.1 0.10 0.47 0.47 93 1004.9
20260507032520 54 254 0.9 7.0 0.11 0.47 0.47 93 1004.7
20260507032021 54 288 1.7 7.0 0.11 0.47 0.47 94 1004.7
20260507031520 55 286 2.6 6.1 0.10 0.46 0.46 94 1004.6
20260507031121 55 296 0.9 6.1 0.09 0.45 0.45 94 1004.6
20260507030520 55 237 0.9 3.5 0.06 0.42 0.42 94 1004.6
20260507030025 56 288 0.9 4.3 0.05 0.41 0.41 94 1004.6
20260507025519 56 309 0.9 5.2 0.05 0.41 0.41 94 1004.4
20260507025020 56 306 0.0 5.2 0.04 0.40 0.40 94 1004.2
20260507024520 57 289 0.9 4.3 0.04 0.40 0.40 94 1004.3
20260507024019 58 291 0.9 3.5 0.02 0.38 0.38 95 1004.4
20260507023518 58 348 0.0 1.7 0.01 0.37 0.37 95 1004.1
20260507023025 58 305 0.9 1.7 0.00 0.36 0.36 95 1004.1
20260507022518 58 305 0.0 1.7 0.00 0.36 0.36 95 1004.1
20260507022018 58 315 0.0 1.7 0.00 0.36 0.36 95 1004.1
20260507021518 58 241 0.0 1.7 0.00 0.36 0.36 95 1004.0
20260507021019 58 251 0.0 1.7 0.00 0.36 0.36 95 1004.0
20260507020517 58 238 0.0 1.7 0.00 0.36 0.36 94 1003.9
20260507020021 58 278 0.0 0.0 0.00 0.36 0.36 94 1004.0
20260507015516 58 278 0.0 0.0 0.00 0.36 0.36 94 1004.0
20260507015023 58 278 0.0 1.7 0.00 0.36 0.36 94 1004.0
20260507014516 58 278 0.0 1.7 0.00 0.36 0.36 94 1004.1
20260507014014 58 278 0.0 3.5 0.00 0.36 0.36 94 1004.2
20260507013514 58 286 0.9 3.5 0.00 0.36 0.36 94 1004.2
20260507013015 58 257 0.9 3.5 0.00 0.36 0.36 94 1004.1
20260507012514 58 200 0.9 3.5 0.00 0.36 0.36 94 1004.1
20260507012015 58 217 0.9 5.2 0.00 0.36 0.36 94 1004.2
20260507011514 58 208 0.9 5.2 0.00 0.36 0.36 94 1004.1
20260507011014 58 215 1.7 7.0 0.00 0.36 0.36 94 1004.2
20260507010514 58 230 1.7 7.0 0.00 0.36 0.36 94 1004.2
20260507010022 58 204 3.5 7.0 0.00 0.36 0.36 94 1004.2
20260507005512 58 205 3.5 6.1 0.00 0.36 0.36 94 1004.2
20260507005013 58 200 1.7 6.1 0.00 0.36 0.36 94 1004.2
20260507004514 58 204 3.5 7.0 0.00 0.36 0.36 94 1004.3
20260507004012 58 188 3.5 7.8 0.00 0.36 0.36 94 1004.2
20260507003513 58 225 3.5 8.7 0.00 0.36 0.36 94 1004.1
20260507003011 58 200 3.5 8.7 0.00 0.36 0.36 94 1004.2
20260507002513 58 203 2.6 5.2 0.00 0.36 0.36 94 1004.2
20260507002011 58 170 1.7 5.2 0.00 0.36 0.36 94 1004.2
20260507001511 58 223 1.7 8.7 0.00 0.36 0.36 94 1004.2
20260507001012 58 207 4.3 8.7 0.00 0.36 0.36 94 1004.2
20260507000511 58 123 3.5 6.1 0.00 0.36 0.36 94 1004.1
20260507000015 58 160 1.7 6.1 0.00 0.37 0.36 94 1004.1
20260506235509 58 195 3.5 6.1 0.00 0.37 0.36 94 1004.1
20260506235009 58 200 1.7 4.3 0.00 0.37 0.36 94 1004.0
20260506234510 58 184 0.9 7.0 0.00 0.37 0.36 94 1004.0
20260506234009 58 188 1.7 7.8 0.00 0.37 0.36 94 1004.0
20260506233509 58 142 2.6 7.8 0.00 0.37 0.36 94 1004.0
20260506233009 58 136 3.5 8.7 0.00 0.37 0.36 95 1004.2
20260506232508 58 138 2.6 7.8 0.00 0.37 0.36 95 1004.1
20260506232009 58 144 0.9 5.2 0.01 0.37 0.36 95 1004.0
20260506231507 58 202 0.9 5.2 0.01 0.37 0.36 95 1004.1
20260506231007 58 77 0.9 7.8 0.01 0.37 0.36 95 1004.2
20260506230507 58 223 0.9 7.8 0.02 0.37 0.36 95 1004.2
20260506230007 58 128 1.7 10.4 0.02 0.42 0.36 95 1004.3
20260506225507 58 152 0.9 4.3 0.03 0.42 0.36 95 1004.3
20260506225005 58 135 0.0 9.6 0.03 0.42 0.36 95 1004.4
20260506224504 58 164 1.7 9.6 0.03 0.42 0.36 95 1004.3
20260506224007 58 205 1.7 4.3 0.03 0.42 0.36 95 1004.4
20260506223505 58 140 0.0 5.2 0.04 0.42 0.36 95 1004.6
20260506223002 58 82 0.9 5.2 0.04 0.42 0.36 95 1004.6
20260506222502 58 138 1.7 5.2 0.05 0.42 0.36 95 1004.6
20260506222000 58 158 1.7 5.2 0.04 0.41 0.35 95 1004.8
20260506221702 58 148 0.9 4.3 0.04 0.41 0.35 95 1004.8
20260506221059 58 127 1.7 6.1 0.05 0.41 0.35 95 1004.8
20260506220559 58 123 2.6 6.1 0.06 0.40 0.34 95 1004.9
20260506220059 58 107 1.7 4.3 0.07 0.40 0.34 94 1005.0
20260506215559 58 74 0.9 4.3 0.06 0.39 0.33 95 1005.1
20260506215058 59 121 1.7 4.3 0.06 0.39 0.33 95 1005.1
20260506214604 59 123 0.9 4.3 0.07 0.39 0.33 95 1005.1
20260506214157 59 79 1.7 3.5 0.08 0.39 0.33 95 1005.2
20260506213555 59 134 0.9 1.7 0.08 0.38 0.32 94 1005.3
20260506213056 59 119 0.9 1.7 0.08 0.38 0.32 95 1005.4
20260506212555 59 94 0.9 1.7 0.08 0.37 0.31 94 1005.4
20260506212055 59 115 0.0 1.7 0.08 0.37 0.31 94 1005.5
20260506211604 59 117 0.0 1.7 0.09 0.37 0.31 94 1005.5
20260506211055 59 128 0.9 1.7 0.08 0.36 0.30 94 1005.4
20260506210555 59 157 0.0 1.7 0.07 0.34 0.28 94 1005.5
20260506210056 59 95 0.0 6.1 0.06 0.33 0.27 94 1005.5
20260506205555 59 99 0.9 6.1 0.07 0.33 0.27 94 1005.5
20260506205056 59 96 0.9 3.5 0.07 0.33 0.27 94 1005.4
20260506204555 59 122 0.0 3.5 0.07 0.32 0.26 94 1005.4
20260506204053 59 128 0.0 3.5 0.06 0.31 0.25 94 1005.5
20260506203555 59 107 0.0 5.2 0.05 0.30 0.24 94 1005.4
20260506203053 59 105 0.0 5.2 0.05 0.30 0.24 94 1005.4
20260506202554 59 167 1.7 5.2 0.04 0.28 0.23 93 1005.4
20260506202053 59 110 0.9 5.2 0.04 0.28 0.23 93 1005.3
20260506201552 59 133 1.7 4.3 0.04 0.28 0.22 93 1005.5
20260506201052 59 131 0.0 5.2 0.04 0.28 0.22 93 1005.5
20260506200555 59 114 0.9 7.0 0.04 0.27 0.21 93 1005.5
20260506200101 59 141 0.9 7.0 0.04 0.27 0.21 93 1005.5
20260506195550 59 154 0.9 6.1 0.03 0.26 0.20 93 1005.6
20260506195053 59 202 0.9 6.1 0.04 0.26 0.20 93 1005.8
20260506194556 59 180 0.9 6.1 0.03 0.25 0.19 93 1005.9
20260506194049 59 167 1.7 6.1 0.04 0.25 0.19 92 1005.8
20260506193550 59 223 0.9 6.1 0.05 0.25 0.19 93 1005.8
20260506193148 59 215 0.9 6.1 0.09 0.25 0.19 93 1005.6
20260506192548 59 175 1.7 6.1 0.13 0.25 0.19 93 1005.8
20260506192051 59 136 0.9 5.2 0.14 0.25 0.19 93 1005.9
20260506191552 59 207 0.0 3.5 0.14 0.24 0.18 93 1005.9
20260506191048 59 201 0.0 3.5 0.15 0.24 0.18 93 1005.9
20260506190547 59 90 0.9 3.5 0.14 0.23 0.17 93 1005.9
20260506190046 59 148 0.0 3.5 0.15 0.23 0.17 93 1006.0
20260506185547 59 161 0.0 1.7 0.16 0.23 0.17 92 1006.1
20260506185046 59 99 0.0 1.7 0.15 0.22 0.16 92 1006.1
20260506184550 59 124 0.0 3.5 0.16 0.22 0.16 92 1006.2
20260506184046 59 106 0.0 2.6 0.15 0.21 0.15 92 1006.3
20260506183545 59 114 1.7 3.5 0.13 0.19 0.13 91 1006.6
20260506183050 60 295 0.0 1.7 0.09 0.15 0.09 90 1006.8
20260506182543 60 114 0.0 1.7 0.06 0.12 0.06 89 1006.4
20260506182043 60 114 0.0 1.7 0.05 0.11 0.05 88 1006.0
20260506181554 60 113 0.0 3.5 0.04 0.10 0.04 87 1006.1
20260506181043 60 113 0.0 3.5 0.03 0.09 0.03 86 1006.1
20260506180543 61 100 0.9 4.3 0.02 0.08 0.02 84 1006.0
20260506180103 62 114 2.6 5.2 0.01 0.07 0.01 82 1006.0
20260506175542 62 49 1.7 7.8 0.01 0.07 0.01 81 1006.0
20260506175042 63 132 1.7 7.8 0.01 0.07 0.01 79 1006.0
20260506174542 63 159 2.6 7.8 0.00 0.06 0.00 79 1006.0
20260506174041 64 113 3.5 7.8 0.00 0.06 0.00 79 1006.1
20260506173541 64 130 3.5 7.8 0.00 0.06 0.00 78 1006.1
20260506173042 64 65 3.5 7.0 0.00 0.06 0.00 78 1006.2
20260506172538 64 62 1.7 5.2 0.00 0.06 0.00 79 1006.3
20260506172038 63 135 0.9 6.1 0.00 0.06 0.00 78 1006.4
20260506171537 63 86 0.9 6.1 0.00 0.06 0.00 78 1006.5
20260506171036 64 186 1.7 7.0 0.00 0.06 0.00 77 1006.6
20260506170534 64 84 2.6 7.0 0.00 0.06 0.00 77 1006.7
20260506170034 64 107 0.9 5.2 0.00 0.06 0.00 78 1006.7
20260506165533 64 227 0.0 6.1 0.00 0.06 0.00 77 1006.8
20260506165032 64 118 2.6 6.1 0.00 0.06 0.00 77 1007.0
20260506164531 64 225 0.9 6.1 0.00 0.06 0.00 76 1007.2
20260506164029 64 98 0.9 6.1 0.00 0.06 0.00 76 1007.2
20260506163529 64 124 3.5 6.1 0.00 0.06 0.00 76 1007.5
20260506163028 64 146 0.9 5.2 0.00 0.06 0.00 76 1007.6
20260506162526 64 146 1.7 6.1 0.00 0.06 0.00 77 1007.7
20260506162026 63 96 1.7 7.0 0.00 0.06 0.00 77 1007.8
20260506161525 63 133 3.5 7.0 0.00 0.06 0.00 77 1007.8
20260506161029 63 96 3.5 6.1 0.00 0.06 0.00 78 1007.9
20260506160524 63 84 1.7 5.2 0.00 0.06 0.00 78 1008.1
20260506160025 63 55 1.7 6.1 0.00 0.06 0.00 77 1008.1
20260506155524 63 124 2.6 6.1 0.00 0.06 0.00 77 1008.2
20260506155024 63 42 1.7 5.2 0.00 0.06 0.00 77 1008.2
20260506154524 63 123 2.6 4.3 0.00 0.06 0.00 76 1008.3
20260506154024 63 131 1.7 4.3 0.00 0.06 0.00 77 1008.4
20260506153523 63 130 0.9 3.5 0.00 0.06 0.00 77 1008.3
20260506153023 63 115 0.9 5.2 0.00 0.06 0.00 77 1008.3
20260506152522 63 174 0.0 6.1 0.00 0.06 0.00 77 1008.4
20260506152022 63 111 2.6 6.1 0.00 0.06 0.00 76 1008.3
20260506151523 63 177 1.7 5.2 0.00 0.06 0.00 77 1008.3
20260506151022 63 135 0.9 5.2 0.00 0.06 0.00 77 1008.3
20260506150521 63 118 3.5 5.2 0.00 0.06 0.00 77 1008.2
20260506150020 62 96 0.0 4.3 0.00 0.06 0.00 78 1008.3
20260506145519 62 102 0.9 5.2 0.00 0.06 0.00 78 1008.2
20260506145017 62 80 2.6 5.2 0.00 0.06 0.00 79 1008.2
20260506144521 61 82 0.9 3.5 0.00 0.06 0.00 78 1008.2
20260506144016 61 165 0.9 5.2 0.00 0.06 0.00 79 1008.1
20260506143515 61 99 1.7 5.2 0.00 0.06 0.00 79 1008.0
20260506143114 61 119 0.9 5.2 0.00 0.06 0.00 80 1008.0
20260506142513 61 106 1.7 6.1 0.00 0.06 0.00 79 1008.2
20260506142012 60 73 1.7 5.2 0.00 0.06 0.00 80 1008.2
20260506141511 60 94 2.6 5.2 0.00 0.06 0.00 80 1008.2
20260506141011 60 55 0.9 5.2 0.00 0.06 0.00 80 1008.3
20260506140512 59 161 0.9 5.2 0.00 0.06 0.00 82 1008.5
20260506140009 59 103 3.5 5.2 0.00 0.06 0.00 81 1008.6
20260506135507 59 144 1.7 4.3 0.00 0.06 0.00 82 1008.6
20260506135010 58 86 1.7 4.3 0.00 0.06 0.00 81 1008.7
20260506134506 58 59 0.0 3.5 0.00 0.06 0.00 82 1008.8
20260506134005 58 94 1.7 3.5 0.00 0.06 0.00 82 1008.8
20260506133507 58 68 0.9 2.6 0.00 0.06 0.00 82 1008.8
20260506133005 58 67 0.9 4.3 0.00 0.06 0.00 82 1008.9
20260506132505 58 70 1.7 4.3 0.00 0.06 0.00 82 1008.9
20260506132005 58 74 0.9 4.3 0.00 0.06 0.00 82 1008.7
20260506131507 58 107 0.9 4.3 0.00 0.06 0.00 83 1008.6
20260506131006 57 114 0.9 3.5 0.00 0.06 0.00 83 1008.6
20260506130504 57 120 1.7 3.5 0.00 0.06 0.00 83 1008.7
20260506130004 57 87 1.7 4.3 0.00 0.06 0.00 83 1008.8
20260506125504 57 67 1.7 4.3 0.00 0.06 0.00 83 1008.7
20260506125003 57 39 0.9 3.5 0.00 0.06 0.00 82 1008.8
20260506124503 57 52 0.9 3.5 0.00 0.06 0.00 83 1008.7
20260506124003 57 133 0.9 4.3 0.00 0.06 0.00 83 1008.6
20260506123503 57 98 0.9 2.6 0.00 0.06 0.00 83 1008.8
20260506123002 56 67 1.7 4.3 0.00 0.06 0.00 83 1008.9
20260506122600 56 86 0.9 4.3 0.00 0.06 0.00 83 1008.9
20260506122101 56 139 0.9 4.3 0.00 0.06 0.00 84 1008.9
20260506121559 56 84 0.9 4.3 0.00 0.06 0.00 84 1009.0
20260506121059 55 84 0.0 3.5 0.00 0.06 0.00 85 1009.1
20260506120559 55 66 0.9 3.5 0.00 0.06 0.00 86 1009.0
20260506120101 55 65 1.7 3.5 0.00 0.06 0.00 86 1009.3
20260506115600 55 52 0.0 4.3 0.00 0.06 0.00 86 1009.4
20260506115057 54 66 2.6 4.3 0.00 0.06 0.00 86 1009.3
20260506114556 55 93 0.9 4.3 0.00 0.06 0.00 86 1009.4
20260506114057 54 69 0.9 4.3 0.00 0.06 0.00 86 1009.4
20260506113557 54 92 0.0 3.5 0.00 0.06 0.00 86 1009.6
20260506113057 54 90 1.7 3.5 0.00 0.06 0.00 87 1009.5
20260506112554 54 94 0.9 4.3 0.00 0.06 0.00 86 1009.7
20260506112054 54 121 1.7 4.3 0.00 0.06 0.00 86 1009.6
20260506111555 54 80 0.9 4.3 0.00 0.06 0.00 87 1009.5
20260506111056 54 98 0.9 4.3 0.00 0.06 0.00 87 1009.6
20260506110553 54 130 0.9 4.3 0.00 0.06 0.00 88 1009.7
20260506110052 54 117 1.7 4.3 0.00 0.06 0.00 88 1009.6
20260506105551 53 103 0.0 3.5 0.00 0.06 0.00 89 1009.5
20260506105053 53 140 0.9 3.5 0.00 0.06 0.00 89 1009.4
20260506104555 53 83 0.9 1.7 0.00 0.06 0.00 89 1009.4
20260506104048 53 111 0.0 0.9 0.00 0.06 0.00 90 1009.2
20260506103547 53 78 0.0 0.9 0.00 0.06 0.00 90 1009.3
20260506103046 53 78 0.0 1.7 0.00 0.06 0.00 90 1009.2
20260506102548 53 82 0.0 1.7 0.00 0.06 0.00 90 1009.3
20260506102045 53 82 0.0 1.7 0.00 0.06 0.00 90 1009.3
20260506101546 53 82 0.0 1.7 0.00 0.06 0.00 90 1009.1
20260506101047 53 82 0.0 1.7 0.00 0.06 0.00 90 1009.1
20260506100544 53 82 0.0 1.7 0.00 0.06 0.00 90 1009.0
20260506100044 53 74 0.9 1.7 0.00 0.06 0.00 90 1009.1
20260506095545 53 74 0.9 1.7 0.00 0.06 0.00 91 1009.3
20260506095044 53 96 0.0 1.7 0.00 0.06 0.00 91 1009.2
20260506094540 53 80 0.0 1.7 0.00 0.06 0.00 92 1009.4
20260506094038 53 117 0.0 1.7 0.00 0.06 0.00 92 1009.4
20260506093537 53 106 0.0 1.7 0.00 0.06 0.00 92 1009.3
20260506093041 53 103 0.0 1.7 0.00 0.06 0.00 92 1009.3
20260506092536 53 132 0.9 1.7 0.00 0.06 0.00 92 1009.2
20260506092035 53 126 0.0 1.7 0.00 0.06 0.00 92 1009.1
20260506091535 53 84 0.0 1.7 0.00 0.06 0.00 92 1008.9
20260506091034 53 117 0.0 1.7 0.00 0.06 0.00 92 1008.8
20260506090535 53 67 0.9 1.7 0.00 0.06 0.00 92 1008.9
20260506090037 53 46 0.9 0.9 0.00 0.06 0.00 92 1009.0
20260506085534 53 33 0.0 0.9 0.00 0.06 0.00 92 1009.0
20260506085034 54 48 0.0 0.9 0.00 0.06 0.00 92 1009.0
20260506084537 54 179 0.0 0.9 0.00 0.06 0.00 92 1008.8
20260506084033 54 179 0.0 1.7 0.00 0.06 0.00 92 1008.8
20260506083534 54 179 0.0 1.7 0.00 0.06 0.00 92 1008.8
20260506083036 54 179 0.0 1.7 0.00 0.06 0.00 91 1008.8
20260506082531 54 145 0.0 1.7 0.00 0.06 0.00 92 1008.9
20260506082030 54 148 0.0 1.7 0.00 0.06 0.00 91 1009.1